Location: Aurora Center
(43.5271°N, 98.5894°W)
Time: 09:25:57
(UTC-05:00)

ACS3 Solar Sail - Pass Details

Date: 24 June 2024
Orbit: 992 x 1023 km, 97.4° (Epoch: 11 July)

Event Time Altitude Azimuth Distance (km) Brightness Sun altitude
Exits shadow 22:41:16 14° 153° (SSE) 2,445 6.3 -11.9°
Maximum altitude 22:46:35 67° 74° (ENE) 1,075 4.9 -12.5°
Drops below altitude 10° 22:52:44 10° 353° (N) 2,765 8.1 -13.2°
Sets 22:55:14 0° 351° (N) 3,718 9.0 -13.5°
